Time,TemperatureF,DewpointF,PressureIn,WindDirection,WindDirectionDegrees,WindSpeedMPH,WindSpeedGustMPH,Humidity,HourlyPrecipIn,Conditions,Clouds,dailyrainin,SoftwareType,DateUTC
2013-01-16 00:03:00,34.0,32.0,30.01,South,169,1.0,5.0,94,0.00,,,0.00,,2013-01-16 05:03:00,
2013-01-16 00:12:00,34.0,32.0,30.01,South,169,1.0,5.0,94,0.00,,,0.00,,2013-01-16 05:12:00,
2013-01-16 00:23:00,34.0,32.0,30.00,WSW,242,2.0,7.0,94,0.00,,,0.00,,2013-01-16 05:23:00,
2013-01-16 00:32:00,34.0,32.0,29.99,NE,40,2.0,8.0,94,0.00,,,0.00,,2013-01-16 05:32:00,
2013-01-16 00:42:00,34.0,32.0,29.99,NE,40,2.0,8.0,94,0.00,,,0.00,,2013-01-16 05:42:00,
2013-01-16 00:53:00,34.0,32.0,29.99,WNW,289,1.0,9.0,94,0.00,,,0.00,,2013-01-16 05:53:00,
2013-01-16 01:03:00,34.0,32.0,29.98,SSE,152,1.0,6.0,94,0.00,,,0.00,,2013-01-16 06:03:00,
2013-01-16 01:12:00,34.0,32.0,29.98,SSE,152,1.0,6.0,94,0.00,,,0.00,,2013-01-16 06:12:00,
2013-01-16 01:22:00,34.0,32.0,29.97,SE,146,1.0,5.0,94,0.01,,,0.01,,2013-01-16 06:22:00,
2013-01-16 01:32:00,34.0,32.0,29.97,SSE,149,1.0,6.0,94,0.26,,,0.26,,2013-01-16 06:32:00,
2013-01-16 01:43:00,34.0,32.0,29.97,SSE,149,1.0,6.0,94,0.26,,,0.26,,2013-01-16 06:43:00,
2013-01-16 01:53:00,34.0,32.0,29.96,SE,144,1.0,5.0,94,0.51,,,0.51,,2013-01-16 06:53:00,
2013-01-16 02:02:00,34.0,32.0,29.97,NE,49,1.0,5.0,94,0.52,,,0.52,,2013-01-16 07:02:00,
2013-01-16 02:12:00,34.0,32.0,29.97,NE,49,1.0,5.0,94,0.52,,,0.52,,2013-01-16 07:12:00,
2013-01-16 02:22:00,34.0,32.0,29.96,South,169,1.0,5.0,94,0.52,,,0.53,,2013-01-16 07:22:00,
2013-01-16 02:33:00,34.0,32.0,29.96,NNW,339,1.0,6.0,94,0.28,,,0.54,,2013-01-16 07:33:00,
2013-01-16 02:42:00,34.0,32.0,29.96,NNW,339,1.0,6.0,94,0.28,,,0.54,,2013-01-16 07:42:00,
2013-01-16 02:52:00,35.0,33.0,29.95,SSE,155,1.0,6.0,94,0.04,,,0.55,,2013-01-16 07:52:00,
2013-01-16 03:02:00,35.0,33.0,29.94,SSE,165,3.0,6.0,94,0.04,,,0.55,,2013-01-16 08:02:00,
2013-01-16 03:12:00,35.0,33.0,29.94,SSE,165,3.0,6.0,94,0.04,,,0.55,,2013-01-16 08:12:00,
2013-01-16 03:22:00,35.0,33.0,29.91,South,184,2.0,6.0,94,0.03,,,0.56,,2013-01-16 08:22:00,
2013-01-16 03:32:00,35.0,33.0,29.92,SSE,157,1.0,6.0,94,0.03,,,0.57,,2013-01-16 08:32:00,
2013-01-16 03:42:00,35.0,33.0,29.92,SSE,157,1.0,6.0,94,0.03,,,0.57,,2013-01-16 08:42:00,
2013-01-16 03:53:00,35.0,33.0,29.93,SSW,202,1.0,5.0,94,0.02,,,0.57,,2013-01-16 08:53:00,
2013-01-16 04:02:00,35.0,33.0,29.93,SSE,155,1.0,5.0,94,0.03,,,0.58,,2013-01-16 09:02:00,
2013-01-16 04:12:00,35.0,33.0,29.93,SSE,155,1.0,5.0,94,0.03,,,0.58,,2013-01-16 09:12:00,
2013-01-16 04:22:00,36.0,34.0,29.93,ESE,105,0.0,3.0,94,0.04,,,0.60,,2013-01-16 09:22:00,
2013-01-16 04:32:00,36.0,34.0,29.93,ESE,105,0.0,0.0,94,0.04,,,0.61,,2013-01-16 09:32:00,
2013-01-16 04:42:00,36.0,34.0,29.93,ESE,105,0.0,0.0,94,0.04,,,0.61,,2013-01-16 09:42:00,
2013-01-16 04:53:00,36.0,34.0,29.93,ESE,105,0.0,0.0,94,0.05,,,0.62,,2013-01-16 09:53:00,
2013-01-16 05:02:00,36.0,34.0,29.93,ESE,105,0.0,2.0,94,0.05,,,0.63,,2013-01-16 10:02:00,
2013-01-16 05:12:00,36.0,34.0,29.93,ESE,105,0.0,2.0,94,0.05,,,0.63,,2013-01-16 10:12:00,
2013-01-16 05:22:00,36.0,34.0,29.91,SSE,151,0.0,1.0,94,0.05,,,0.64,,2013-01-16 10:22:00,
2013-01-16 05:32:00,36.0,34.0,29.90,South,177,2.0,5.0,94,0.03,,,0.64,,2013-01-16 10:32:00,
2013-01-16 05:42:00,36.0,34.0,29.90,South,177,2.0,5.0,94,0.03,,,0.64,,2013-01-16 10:42:00,
2013-01-16 05:53:00,36.0,34.0,29.90,SSE,163,1.0,4.0,94,0.03,,,0.65,,2013-01-16 10:53:00,
2013-01-16 06:02:00,36.0,34.0,29.90,SSE,150,0.0,2.0,94,0.03,,,0.66,,2013-01-16 11:02:00,
2013-01-16 06:12:00,36.0,34.0,29.90,SSE,150,0.0,2.0,94,0.03,,,0.66,,2013-01-16 11:12:00,
2013-01-16 06:23:00,36.0,34.0,29.90,SSE,155,0.0,5.0,94,0.02,,,0.66,,2013-01-16 11:23:00,
2013-01-16 06:33:00,36.0,34.0,29.89,South,180,0.0,6.0,94,0.03,,,0.67,,2013-01-16 11:33:00,
2013-01-16 06:43:00,36.0,34.0,29.89,South,180,0.0,6.0,94,0.03,,,0.67,,2013-01-16 11:43:00,
2013-01-16 06:53:00,36.0,34.0,29.88,SSE,168,1.0,2.0,94,0.03,,,0.68,,2013-01-16 11:53:00,
2013-01-16 07:03:00,36.0,34.0,29.84,NE,40,1.0,5.0,94,0.02,,,0.68,,2013-01-16 12:03:00,
2013-01-16 07:13:00,36.0,34.0,29.84,NE,40,1.0,5.0,94,0.02,,,0.68,,2013-01-16 12:13:00,
2013-01-16 07:22:00,36.0,34.0,29.83,NE,44,1.0,6.0,94,0.03,,,0.69,,2013-01-16 12:22:00,
2013-01-16 07:33:00,37.0,36.0,29.83,SSE,149,0.0,6.0,95,0.02,,,0.69,,2013-01-16 12:33:00,
2013-01-16 07:43:00,37.0,36.0,29.83,SSE,149,0.0,6.0,95,0.02,,,0.69,,2013-01-16 12:43:00,
2013-01-16 07:53:00,38.0,37.0,29.88,NW,311,2.0,9.0,95,0.01,,,0.69,,2013-01-16 12:53:00,
2013-01-16 08:03:00,39.0,38.0,29.88,NNW,333,4.0,5.0,95,0.01,,,0.69,,2013-01-16 13:03:00,
2013-01-16 08:12:00,39.0,38.0,29.88,NNW,333,4.0,5.0,95,0.01,,,0.69,,2013-01-16 13:12:00,
2013-01-16 08:23:00,39.0,38.0,29.89,NNW,345,1.0,12.0,95,0.01,,,0.70,,2013-01-16 13:23:00,
2013-01-16 08:33:00,38.0,36.0,29.88,North,360,0.0,4.0,94,0.02,,,0.71,,2013-01-16 13:33:00,
2013-01-16 08:43:00,38.0,36.0,29.88,North,360,0.0,4.0,94,0.02,,,0.71,,2013-01-16 13:43:00,
2013-01-16 08:53:00,37.0,35.0,29.87,North,360,0.0,2.0,94,0.04,,,0.73,,2013-01-16 13:53:00,
2013-01-16 09:03:00,37.0,36.0,29.88,WNW,290,1.0,9.0,95,0.04,,,0.73,,2013-01-16 14:03:00,
2013-01-16 09:12:00,37.0,36.0,29.88,WNW,290,1.0,9.0,95,0.04,,,0.73,,2013-01-16 14:12:00,
2013-01-16 09:23:00,37.0,35.0,29.89,NW,321,14.0,18.0,94,0.04,,,0.74,,2013-01-16 14:23:00,
2013-01-16 09:33:00,35.0,33.0,29.93,NNW,344,13.0,22.0,94,0.03,,,0.74,,2013-01-16 14:33:00,
2013-01-16 09:43:00,35.0,33.0,29.93,NNW,344,13.0,22.0,94,0.03,,,0.74,,2013-01-16 14:43:00,
2013-01-16 09:53:00,35.0,33.0,29.91,NW,316,6.0,9.0,94,0.01,,,0.74,,2013-01-16 14:53:00,
2013-01-16 10:03:00,35.0,34.0,29.86,SE,144,0.0,4.0,95,0.01,,,0.74,,2013-01-16 15:03:00,
2013-01-16 10:12:00,35.0,34.0,29.86,SE,144,0.0,4.0,95,0.01,,,0.74,,2013-01-16 15:12:00,
2013-01-16 10:23:00,35.0,34.0,29.82,SE,140,0.0,2.0,95,0.00,,,0.74,,2013-01-16 15:23:00,
2013-01-16 10:33:00,36.0,35.0,29.87,WNW,303,8.0,12.0,95,0.00,,,0.74,,2013-01-16 15:33:00,
2013-01-16 10:43:00,36.0,35.0,29.87,WNW,303,8.0,12.0,95,0.00,,,0.74,,2013-01-16 15:43:00,
2013-01-16 10:53:00,35.0,34.0,29.88,NW,322,8.0,17.0,95,0.00,,,0.74,,2013-01-16 15:53:00,
2013-01-16 11:04:00,35.0,34.0,29.88,WNW,294,12.0,18.0,95,0.00,,,0.74,,2013-01-16 16:04:00,
2013-01-16 11:12:00,35.0,34.0,29.88,WNW,294,12.0,18.0,95,0.00,,,0.74,,2013-01-16 16:12:00,
2013-01-16 11:23:00,35.0,34.0,29.87,NW,312,8.0,12.0,95,0.00,,,0.74,,2013-01-16 16:23:00,
2013-01-16 11:33:00,35.0,34.0,29.88,NW,304,6.0,9.0,95,0.00,,,0.74,,2013-01-16 16:33:00,
2013-01-16 11:43:00,35.0,34.0,29.88,NW,304,6.0,9.0,95,0.00,,,0.74,,2013-01-16 16:43:00,
2013-01-16 11:53:00,35.0,34.0,29.88,WSW,256,8.0,15.0,95,0.00,,,0.74,,2013-01-16 16:53:00,
2013-01-16 12:03:00,35.0,34.0,29.84,SW,215,4.0,15.0,95,0.00,,,0.74,,2013-01-16 17:03:00,
2013-01-16 12:12:00,35.0,34.0,29.84,SW,215,4.0,15.0,95,0.00,,,0.74,,2013-01-16 17:12:00,
2013-01-16 12:23:00,35.0,34.0,29.88,WNW,293,9.0,14.0,95,0.00,,,0.74,,2013-01-16 17:23:00,
2013-01-16 12:33:00,35.0,34.0,29.87,West,261,6.0,11.0,95,0.01,,,0.75,,2013-01-16 17:33:00,
2013-01-16 12:44:00,35.0,34.0,29.87,West,261,6.0,11.0,95,0.01,,,0.75,,2013-01-16 17:44:00,
2013-01-16 12:53:00,35.0,34.0,29.87,WSW,257,7.0,14.0,95,0.01,,,0.75,,2013-01-16 17:53:00,
2013-01-16 13:03:00,34.0,33.0,29.88,WNW,294,5.0,12.0,95,0.02,,,0.76,,2013-01-16 18:03:00,
2013-01-16 13:13:00,34.0,33.0,29.88,WNW,294,5.0,12.0,95,0.02,,,0.76,,2013-01-16 18:13:00,
2013-01-16 13:23:00,34.0,33.0,29.88,SW,222,5.0,9.0,95,0.03,,,0.77,,2013-01-16 18:23:00,
2013-01-16 13:33:00,34.0,33.0,29.91,WSW,239,5.0,8.0,95,0.02,,,0.77,,2013-01-16 18:33:00,
2013-01-16 13:43:00,34.0,33.0,29.91,WSW,239,5.0,8.0,95,0.02,,,0.77,,2013-01-16 18:43:00,
2013-01-16 13:53:00,34.0,33.0,29.88,SW,235,2.0,12.0,95,0.03,,,0.78,,2013-01-16 18:53:00,
2013-01-16 14:03:00,34.0,33.0,29.89,West,261,4.0,11.0,95,0.03,,,0.79,,2013-01-16 19:03:00,
2013-01-16 14:13:00,34.0,33.0,29.89,West,261,4.0,11.0,95,0.03,,,0.79,,2013-01-16 19:13:00,
2013-01-16 14:23:00,34.0,33.0,29.90,West,259,4.0,8.0,95,0.02,,,0.79,,2013-01-16 19:23:00,
2013-01-16 14:33:00,34.0,33.0,29.90,WSW,247,4.0,8.0,95,0.02,,,0.79,,2013-01-16 19:33:00,
2013-01-16 14:43:00,34.0,33.0,29.90,WSW,247,4.0,8.0,95,0.02,,,0.79,,2013-01-16 19:43:00,
2013-01-16 14:53:00,34.0,33.0,29.90,SW,231,3.0,8.0,95,0.01,,,0.79,,2013-01-16 19:53:00,
2013-01-16 15:03:00,34.0,33.0,29.89,SSE,148,5.0,11.0,95,0.00,,,0.79,,2013-01-16 20:03:00,
2013-01-16 15:12:00,34.0,33.0,29.89,SSE,148,5.0,11.0,95,0.00,,,0.79,,2013-01-16 20:12:00,
2013-01-16 15:23:00,34.0,33.0,29.90,WSW,256,4.0,8.0,95,0.01,,,0.80,,2013-01-16 20:23:00,
2013-01-16 15:33:00,34.0,33.0,29.92,West,260,5.0,10.0,95,0.01,,,0.80,,2013-01-16 20:33:00,
2013-01-16 15:43:00,34.0,33.0,29.92,West,260,5.0,10.0,95,0.01,,,0.80,,2013-01-16 20:43:00,
2013-01-16 15:53:00,34.0,33.0,29.91,SSW,209,4.0,13.0,95,0.01,,,0.80,,2013-01-16 20:53:00,
2013-01-16 16:03:00,34.0,33.0,29.93,SW,225,4.0,11.0,95,0.02,,,0.81,,2013-01-16 21:03:00,
2013-01-16 16:12:00,34.0,33.0,29.93,SW,225,4.0,11.0,95,0.02,,,0.81,,2013-01-16 21:12:00,
2013-01-16 16:23:00,34.0,33.0,29.91,WSW,244,4.0,15.0,95,0.01,,,0.81,,2013-01-16 21:23:00,
2013-01-16 16:33:00,34.0,33.0,29.94,West,269,6.0,8.0,95,0.01,,,0.81,,2013-01-16 21:33:00,
2013-01-16 16:43:00,34.0,33.0,29.94,West,269,6.0,8.0,95,0.01,,,0.81,,2013-01-16 21:43:00,
2013-01-16 16:53:00,34.0,33.0,29.93,SW,235,5.0,12.0,95,0.01,,,0.81,,2013-01-16 21:53:00,
2013-01-16 17:03:00,34.0,33.0,29.93,South,183,3.0,10.0,95,0.00,,,0.81,,2013-01-16 22:03:00,
2013-01-16 17:12:00,34.0,33.0,29.93,South,183,3.0,10.0,95,0.00,,,0.81,,2013-01-16 22:12:00,
2013-01-16 17:23:00,34.0,33.0,29.93,West,272,5.0,21.0,95,0.00,,,0.81,,2013-01-16 22:23:00,
2013-01-16 17:33:00,34.0,33.0,29.93,West,260,3.0,8.0,95,0.00,,,0.81,,2013-01-16 22:33:00,
2013-01-16 17:43:00,34.0,33.0,29.93,West,260,3.0,8.0,95,0.00,,,0.81,,2013-01-16 22:43:00,
2013-01-16 17:53:00,34.0,33.0,29.94,West,268,4.0,9.0,95,0.00,,,0.81,,2013-01-16 22:53:00,
2013-01-16 18:03:00,34.0,33.0,29.93,WSW,246,6.0,10.0,95,0.00,,,0.81,,2013-01-16 23:03:00,
2013-01-16 18:12:00,34.0,33.0,29.93,WSW,246,6.0,10.0,95,0.00,,,0.81,,2013-01-16 23:12:00,
2013-01-16 18:23:00,34.0,33.0,29.94,WSW,249,2.0,7.0,95,0.00,,,0.81,,2013-01-16 23:23:00,
2013-01-16 18:32:00,34.0,33.0,29.95,SW,221,1.0,10.0,95,0.00,,,0.81,,2013-01-16 23:32:00,
2013-01-16 18:42:00,34.0,33.0,29.95,SW,221,1.0,10.0,95,0.00,,,0.81,,2013-01-16 23:42:00,
2013-01-16 18:53:00,34.0,33.0,29.96,West,261,5.0,12.0,95,0.00,,,0.81,,2013-01-16 23:53:00,
2013-01-16 19:02:00,34.0,33.0,29.96,West,269,4.0,9.0,95,0.00,,,0.81,,2013-01-17 00:02:00,
2013-01-16 19:12:00,34.0,33.0,29.96,West,269,4.0,9.0,95,0.00,,,0.81,,2013-01-17 00:12:00,
2013-01-16 19:22:00,34.0,33.0,29.97,West,264,6.0,17.0,95,0.00,,,0.81,,2013-01-17 00:22:00,
2013-01-16 19:32:00,34.0,33.0,29.99,WSW,246,6.0,13.0,95,0.00,,,0.81,,2013-01-17 00:32:00,
2013-01-16 19:42:00,34.0,33.0,29.99,WSW,246,6.0,13.0,95,0.00,,,0.81,,2013-01-17 00:42:00,
2013-01-16 19:53:00,34.0,32.0,30.01,WSW,241,5.0,13.0,94,0.00,,,0.81,,2013-01-17 00:53:00,
2013-01-16 20:02:00,34.0,32.0,30.01,WSW,254,9.0,16.0,94,0.00,,,0.81,,2013-01-17 01:02:00,
2013-01-16 20:12:00,34.0,32.0,30.01,WSW,254,9.0,16.0,94,0.00,,,0.81,,2013-01-17 01:12:00,
2013-01-16 20:22:00,34.0,32.0,30.00,SW,216,6.0,14.0,94,0.00,,,0.81,,2013-01-17 01:22:00,
2013-01-16 20:33:00,34.0,32.0,29.99,West,265,6.0,13.0,93,0.00,,,0.81,,2013-01-17 01:33:00,
2013-01-16 20:42:00,34.0,32.0,29.99,West,265,6.0,13.0,93,0.00,,,0.81,,2013-01-17 01:42:00,
2013-01-16 20:53:00,34.0,32.0,29.99,WSW,244,8.0,14.0,93,0.00,,,0.81,,2013-01-17 01:53:00,
2013-01-16 21:02:00,34.0,32.0,29.99,West,275,5.0,11.0,92,0.00,,,0.81,,2013-01-17 02:02:00,
2013-01-16 21:12:00,34.0,32.0,29.99,West,275,5.0,11.0,92,0.00,,,0.81,,2013-01-17 02:12:00,
2013-01-16 21:22:00,33.0,31.0,30.01,West,267,4.0,8.0,92,0.00,,,0.81,,2013-01-17 02:22:00,
2013-01-16 21:32:00,33.0,31.0,30.00,West,268,4.0,9.0,92,0.00,,,0.81,,2013-01-17 02:32:00,
2013-01-16 21:42:00,33.0,31.0,30.00,West,268,4.0,9.0,92,0.00,,,0.81,,2013-01-17 02:42:00,
2013-01-16 21:52:00,33.0,31.0,30.00,West,268,4.0,9.0,92,0.00,,,0.81,,2013-01-17 02:52:00,
2013-01-16 22:03:00,33.0,31.0,30.00,SW,230,2.0,8.0,91,0.00,,,0.81,,2013-01-17 03:03:00,
2013-01-16 22:12:00,33.0,31.0,30.00,SW,230,2.0,8.0,91,0.00,,,0.81,,2013-01-17 03:12:00,
2013-01-16 22:22:00,33.0,31.0,30.02,SW,218,8.0,12.0,91,0.00,,,0.81,,2013-01-17 03:22:00,
2013-01-16 22:33:00,33.0,31.0,30.01,SSW,211,8.0,13.0,91,0.00,,,0.81,,2013-01-17 03:33:00,
2013-01-16 22:43:00,33.0,31.0,30.01,SSW,211,8.0,13.0,91,0.00,,,0.81,,2013-01-17 03:43:00,
2013-01-16 22:53:00,33.0,31.0,30.00,SSW,202,6.0,13.0,91,0.00,,,0.81,,2013-01-17 03:53:00,
2013-01-16 23:02:00,33.0,31.0,30.00,West,262,7.0,12.0,91,0.00,,,0.81,,2013-01-17 04:02:00,
2013-01-16 23:12:00,33.0,31.0,30.00,SW,228,5.0,9.0,91,0.00,,,0.81,,2013-01-17 04:12:00,
2013-01-16 23:22:00,33.0,31.0,30.00,SW,228,5.0,9.0,91,0.00,,,0.81,,2013-01-17 04:22:00,
2013-01-16 23:33:00,33.0,31.0,30.01,WSW,248,7.0,13.0,91,0.00,,,0.81,,2013-01-17 04:33:00,
2013-01-16 23:42:00,33.0,31.0,30.01,WSW,248,7.0,13.0,91,0.00,,,0.81,,2013-01-17 04:42:00,
2013-01-16 23:53:00,33.0,31.0,30.02,WNW,288,6.0,10.0,91,0.00,,,0.81,,2013-01-17 04:53:00,